Regional Weather Roundup
Issued by NWS

Home | Current Version | Previous Version | Text Only | Print | Product List | Glossary Off
Versions: 1 2 3 4 5 6 7 8 9 10 11 12 13 14 15 16 17 18 19 20 21 22 23 24 25 26 27 28 29 30 31 32 33 34 35 36 37 38 39 40 41 42 43 44 45 46 47 48 49 50

000
ASUS43 KDTX 250801
RWRMI
MICHIGAN HOURLY REGIONAL WEATHER ROUNDUP
NATIONAL WEATHER SERVICE DETROIT/PONTIAC MI
400 AM EDT MON SEP 25 2017

NOTE: "FAIR" INDICATES FEW OR NO CLOUDS BELOW 12,000 FEET WITH NO
SIGNIFICANT WEATHER AND/OR OBSTRUCTION TO VISIBILITY.

MIZ047>049-052>055-059>063-066>070-074>076-081>083-250900-
SOUTHEAST LOWER MICHIGAN

CITY           SKY/WX    TMP DP  RH WIND       PRES   REMARKS
ADRIAN         CLEAR     64  62  93 CALM      30.07F FOG
ALMA           PTCLDY    59  57  91 CALM      30.06F
ANN ARBOR      PTCLDY    60  60 100 CALM      30.06F FOG
BAD AXE        CLEAR     60  58  92 CALM      30.07F
CARO           CLEAR     59  57  95 CALM      30.06F FOG
DETROIT CITY   PTCLDY    69  65  86 CALM      30.06F
DETROIT        PTCLDY    69  65  86 N5        30.06F
FLINT          PTCLDY    68  63  84 S5        30.07S
GROSSE ILE     CLEAR     68  66  92 CALM      30.04F
HILLSDALE      MOCLDY    66  63  88 CALM      30.07F
HOWELL         PTCLDY    67  63  89 CALM      30.08S

CITY           SKY/WX    TMP DP  RH WIND       PRES   REMARKS
JACKSON        PTCLDY    66  62  87 CALM      30.07F
LAMBERTVILLE     N/A     66  64  92 CALM      30.05S FOG
LANSING        PTCLDY    70  62  76 S6        30.07F
LAPEER         FAIR      60  59  97 CALM      30.08S FOG
MASON          PTCLDY    67  63  85 E7        30.07F
MONROE           N/A     67  65  93 CALM      30.05S FOG
MT. CLEMENS    PTCLDY    65  65 100 CALM      30.06S
PONTIAC        CLEAR     65  64  97 CALM      30.07F
PORT HOPE        N/A     66  63  90 CALM      30.05F
PORT HURON     FOG       61  59  94 CALM      30.07F VSB 1/4
TRI CITIES     CLEAR     70  64  81 S6        30.06F
MIDLAND        FAIR      63  63  99 CALM      30.05F
TROY           PTCLDY    69  64  85 CALM      30.09S
SAGINAW HB     CLEAR     63  59  88 S3        30.05F
$$
MIZ043>046-050>051-056>058-064>065-071>073-077>080-250900-
SOUTHWEST LOWER MICHIGAN

CITY           SKY/WX    TMP DP  RH WIND       PRES   REMARKS
BATTLE CREEK   CLEAR     68  64  87 SE5       30.06F
BENTON HARBOR  CLOUDY    66  58  75 SE6       30.02F
BIG RAPIDS     PTCLDY    59  57  94 CALM      30.06S FOG
COLDWATER      PTCLDY    67  65  95 SE3       30.06F
FREMONT        FAIR      66  60  79 SE3       30.03S
HOLLAND        PTCLDY    65  59  81 S3        30.03F
GRAND RAPIDS   PTCLDY    69  62  78 S7        30.04F
IONIA          FAIR      66  60  79 S6        30.05F
KALAMAZOO      PTCLDY    65  60  84 CALM      30.06S HAZE
LUDINGTON      CLEAR     62  58  87 E3        30.01S
MARSHALL       CLOUDY    67  66  98 SE3       30.06F
MOUNT PLEASANT CLEAR     63  61  94 CALM      30.05S
MUSKEGON       CLEAR     67  59  75 E6        30.02F
SOUTH HAVEN    PTCLDY    68  61  78 CALM      30.02F
$$
MIZ016>042-250900-
NORTHERN LOWER MICHIGAN

CITY           SKY/WX    TMP DP  RH WIND       PRES   REMARKS
ALPENA         CLEAR     61  60  97 CALM      30.05S
BELLAIRE       FOG       59  58  96 CALM      30.02S VSB 1/2
CADILLAC       CLEAR     60  55  85 CALM      30.06S HAZE
CHARLEVOIX     CLEAR     67  64  90 SE3       30.03S
FRANKFORT      CLEAR     66  61  84 CALM      30.00S
GAYLORD        CLEAR     65  60  84 CALM      30.06F
GRAYLING       CLEAR     57  54  89 CALM      30.07S
HARBOR SPRINGS CLEAR     64  62  94 NE3       30.01S
HOUGHTON LAKE  CLEAR     62  58  86 CALM      30.08S
MANISTEE       CLEAR     60  60 100 E5        30.01S FOG
OSCODA         CLEAR     64  63  97 CALM      30.05S FOG
PELLSTON       PTCLDY    59  58  96 CALM      30.01S FOG
ROGERS CITY    CLEAR     70  62  76 SW9       30.03F
TRAVERSE CITY  CLEAR     71  62  73 CALM      30.00S
$$
MIZ007>008-015-250900-
EASTERN UPPER MICHIGAN

CITY           SKY/WX    TMP DP  RH WIND       PRES   REMARKS
KINROSS        CLEAR     68  63  84 S6        30.00F
MACKINAC ISLAN CLEAR     71  63  74 S7        30.00F
NEWBERRY       CLEAR     66  65  97 S7        29.99S FOG
S. S. MARIE    CLEAR     66  64  93 E3        30.00S
MUNISING         N/A     69  63  81 S7        29.94F
$$
MIZ004>006-011>014-085-250900-
CENTRAL UPPER MICHIGAN

CITY           SKY/WX    TMP DP  RH WIND       PRES   REMARKS
MANISTIQUE     CLEAR     63  58  82 S3        29.98F
ESCANABA       CLEAR     62  62 100 CALM      29.96F FOG
MENOMINEE      CLEAR     69  62  78 SW5       29.97F
SAWYER-GWINN   CLEAR     64  60  87 S6        29.97S
$$
MIZ001>003-009>011-084-250900-
WESTERN UPPER MICHIGAN

CITY           SKY/WX    TMP DP  RH WIND       PRES   REMARKS
IRON MOUNTAIN  CLEAR     67  61  81 SE6       29.95F
HOUGHTON       PTCLDY    71  61  70 S10       29.89S
COPPER HARBOR    N/A     72  62  71 W6        29.86F
IRONWOOD       PTCLDY    71  61  70 SW10      29.91S
$$

ABBREVIATIONS USED IN REMARKS
   TC - TEMPERATURE IN CELSIUS
  WCI - WIND CHILL INDEX
   HX - HEAT INDEX
  VSB - VISIBILITY




USA.gov is the U.S. government's official web portal to all federal, state and local government web resources and services.